Weather History for Muscatine, IA

Change the Weather History Date:

Thursday, December 20, 2012

  Actual Average Record
Temperature  
Mean Temperature 27 °F -  
Max Temperature 37 °F 32 °F 57 °F (1967)
Min Temperature 17 °F 16 °F -13 °F (1989)
Degree Days  
Heating Degree Days 38    
Moisture  
Dew Point 27 °F    
Average Humidity 85    
Maximum Humidity 93    
Minimum Humidity 74    
Precipitation  
Precipitation 0.67 in - - ()
Sea Level Pressure  
Sea Level Pressure 29.50 in    
Wind  
Wind Speed 23 mph (NNW)    
Max Wind Speed 37 mph    
Max Gust Speed 52 mph    
Visibility 3 miles    
Events Rain , Snow    
Averages and records for this station are not official NWS values.
T = Trace of Precipitation, MM = Missing Value Source: NWS Daily Summary

Daily Weather History Graph

Daily Weather History Graph

Search for Another Location

Airport:

Trip Planner

Search our weather history database for the weather conditions in past years. The results will help you decide how hot, cold, wet, or windy it might be!

Date:

Astronomy

Dec. 20, 2012 Rise Set
Actual Time 7:26 AM CST 4:38 PM CST
Civil Twilight 6:55 AM CST 5:09 PM CST
Nautical Twilight 6:20 AM CST 5:44 PM CST
Astronomical Twilight 5:46 AM CST 6:18 PM CST
Moon 11:59 AM CST (12/20) 12:10 AM CST (12/20)
Length of Visible Light 10h 13m
Length of Day
9h 11m
First Quarter, 55% of the Moon is Illuminated
Dec 20
First Quarter
Dec 28
Full
Jan 4
Last Quarter
Jan 11
New
Jan 18
First Quarter

Hourly Weather History & Observations

Time (CST) Temp. Windchill Dew Point Humidity Pressure Visibility Wind Dir Wind Speed Gust Speed Precip Events Conditions
12:15 AM 35.6 °F 26.2 °F 32.0 °F 87% 29.59 in 4.0 mi NE 15.0 mph 24.2 mph 0.02 in   Overcast
12:55 AM 37.4 °F 28.9 °F 33.8 °F 87% 29.55 in 4.0 mi NE 13.8 mph 18.4 mph 0.06 in   Overcast
1:15 AM 37.4 °F 28.5 °F 33.8 °F 87% 29.53 in 4.0 mi ENE 15.0 mph 20.7 mph N/A   Overcast
1:35 AM 37.4 °F 29.8 °F 35.6 °F 93% 29.53 in 4.0 mi NE 11.5 mph 17.3 mph 0.01 in Rain Light Rain
1:55 AM 37.4 °F 30.8 °F 35.6 °F 93% 29.52 in 3.0 mi NNE 9.2 mph - 0.02 in   Drizzle
2:15 AM 37.4 °F 28.2 °F 33.8 °F 87% 29.49 in 2.5 mi NNE 16.1 mph - 0.01 in   Overcast
2:35 AM 37.4 °F 27.8 °F 33.8 °F 87% 29.52 in 2.5 mi NNW 17.3 mph - 0.02 in   Overcast
2:55 AM 35.6 °F 25.5 °F 33.8 °F 93% 29.49 in 2.0 mi NNE 17.3 mph 25.3 mph 0.04 in Snow Light Snow
3:15 AM 35.6 °F 23.7 °F 33.8 °F 93% 29.45 in 3.0 mi NE 24.2 mph - 0.01 in   Overcast
3:35 AM 37.4 °F 29.3 °F 33.8 °F 87% 29.43 in 7.0 mi NNE 12.7 mph 27.6 mph 0.02 in   Overcast
3:55 AM 37.4 °F 29.8 °F 33.8 °F 87% 29.41 in 5.0 mi NE 11.5 mph - 0.02 in   Overcast
4:15 AM 37.4 °F 27.8 °F 33.8 °F 87% 29.37 in 2.5 mi NE 17.3 mph - 0.02 in   Overcast
4:35 AM 37.4 °F 29.3 °F 33.8 °F 87% 29.37 in 5.0 mi NE 12.7 mph 23.0 mph 0.02 in   Overcast
4:55 AM 37.4 °F 27.8 °F 33.8 °F 87% 29.34 in 4.0 mi NE 17.3 mph 24.2 mph 0.04 in   Overcast
5:15 AM 37.4 °F 28.5 °F 33.8 °F 87% 29.33 in 7.0 mi NNE 15.0 mph 24.2 mph 0.05 in Snow Light Snow
5:35 AM 35.6 °F 26.6 °F 33.8 °F 93% 29.34 in 5.0 mi North 13.8 mph - 0.08 in Snow Light Snow
5:55 AM 35.6 °F 25.2 °F 33.8 °F 93% 29.32 in 7.0 mi North 18.4 mph 21.9 mph 0.10 in Snow Light Snow
6:15 AM 35.6 °F 23.7 °F 33.8 °F 93% 29.32 in 5.0 mi North 24.2 mph 31.1 mph 0.03 in Snow Light Snow
6:35 AM 35.6 °F 23.4 °F 33.8 °F 93% 29.30 in 5.0 mi North 25.3 mph 33.4 mph 0.07 in Snow Light Snow
6:55 AM 35.6 °F 24.2 °F 32.0 °F 87% 29.31 in 7.0 mi North 21.9 mph 33.4 mph 0.09 in   Overcast
7:15 AM 35.6 °F 24.0 °F 32.0 °F 87% 29.30 in 4.0 mi North 23.0 mph 29.9 mph 0.02 in Snow Light Snow
7:35 AM 35.6 °F 23.2 °F 32.0 °F 87% 29.30 in 4.0 mi North 26.5 mph 34.5 mph 0.07 in Snow Light Snow
7:55 AM 35.6 °F 23.7 °F 30.2 °F 81% 29.29 in 2.0 mi North 24.2 mph 33.4 mph 0.13 in Snow Light Snow
8:15 AM 33.8 °F 20.5 °F 30.2 °F 87% 29.28 in 2.0 mi North 27.6 mph 39.1 mph 0.10 in Snow Light Snow
8:35 AM 33.8 °F 21.0 °F 30.2 °F 87% 29.28 in 5.0 mi North 25.3 mph 35.7 mph 0.16 in Snow Light Snow
8:55 AM 33.8 °F 21.6 °F 30.2 °F 87% 29.29 in 7.0 mi North 23.0 mph 34.5 mph 0.17 in   Overcast
9:15 AM 33.8 °F 21.0 °F 30.2 °F 87% 29.30 in 3.0 mi North 25.3 mph 33.4 mph N/A Snow Light Snow
9:35 AM 33.8 °F 20.5 °F 30.2 °F 87% 29.30 in 1.0 mi North 27.6 mph 33.4 mph N/A Snow Snow
9:55 AM 33.8 °F 21.3 °F 30.2 °F 87% 29.30 in 0.2 mi NNW 24.2 mph 36.8 mph N/A Snow Snow
10:15 AM 33.8 °F 19.6 °F 30.2 °F 87% 29.30 in 0.2 mi NNW 32.2 mph 40.3 mph N/A Snow Heavy Snow
10:35 AM 33.8 °F 20.5 °F 30.2 °F 87% 29.31 in 0.2 mi NNW 27.6 mph 43.7 mph N/A Snow Snow
10:55 AM 33.8 °F 19.2 °F 30.2 °F 87% 29.30 in 0.2 mi NNW 34.5 mph 42.6 mph N/A Snow Snow
11:15 AM 33.8 °F 19.6 °F 30.2 °F 87% 29.29 in 0.2 mi NNW 32.2 mph 41.4 mph N/A Snow Snow
11:35 AM 33.8 °F 19.9 °F 30.2 °F 87% 29.30 in 0.2 mi NNW 31.1 mph 41.4 mph N/A Snow Snow
11:55 AM 33.8 °F 20.1 °F 30.2 °F 87% 29.30 in 0.5 mi NNW 29.9 mph 43.7 mph N/A Snow Snow
12:15 PM 33.8 °F 19.4 °F 30.2 °F 87% 29.30 in 0.5 mi NNW 33.4 mph 47.2 mph N/A Snow Light Snow
12:35 PM 33.8 °F 20.1 °F 28.4 °F 81% 29.32 in 0.5 mi NW 29.9 mph 42.6 mph N/A Snow Light Snow
12:55 PM 32.0 °F 17.6 °F 28.4 °F 87% 29.34 in 0.2 mi NW 29.9 mph 43.7 mph N/A Snow Snow
1:15 PM 30.2 °F 15.4 °F 26.6 °F 86% 29.36 in - NNW 28.8 mph 43.7 mph N/A   Unknown
1:35 PM 30.2 °F 14.9 °F 26.6 °F 86% 29.38 in - NW 31.1 mph 40.3 mph N/A   Unknown
1:55 PM 30.2 °F 15.2 °F 26.6 °F 86% 29.40 in 0.5 mi NW 29.9 mph 43.7 mph N/A Snow Light Snow
2:15 PM 30.2 °F 14.7 °F 26.6 °F 86% 29.42 in 0.5 mi NW 32.2 mph 43.7 mph N/A Snow Light Snow
2:35 PM 30.2 °F 14.9 °F 26.6 °F 86% 29.44 in 0.5 mi NW 31.1 mph 43.7 mph N/A Snow Snow
2:55 PM 30.2 °F 13.9 °F 26.6 °F 86% 29.47 in 0.2 mi NW 36.8 mph 44.9 mph N/A Snow Snow
3:15 PM 30.2 °F 14.9 °F 26.6 °F 86% 29.50 in 0.5 mi NW 31.1 mph 42.6 mph N/A Snow Light Snow
3:35 PM 28.4 °F 12.0 °F 24.8 °F 86% 29.52 in 0.5 mi NW 33.4 mph 46.0 mph N/A Snow Light Snow
3:55 PM 28.4 °F 11.4 °F 24.8 °F 86% 29.53 in 0.5 mi NW 36.8 mph 43.7 mph N/A Snow Light Snow
4:15 PM 28.4 °F 12.3 °F 24.8 °F 86% 29.56 in 0.5 mi NW 32.2 mph 46.0 mph N/A Snow Light Snow
4:35 PM 28.4 °F 12.3 °F 24.8 °F 86% 29.58 in 1.5 mi WNW 32.2 mph 41.4 mph N/A Snow Light Snow
4:55 PM 28.4 °F 11.4 °F 24.8 °F 86% 29.60 in 1.0 mi NW 36.8 mph 51.8 mph N/A Snow Light Snow
5:15 PM 28.4 °F 11.6 °F 24.8 °F 86% 29.62 in 1.0 mi NW 35.7 mph 51.8 mph N/A Snow Light Snow
5:35 PM 28.4 °F 11.6 °F 24.8 °F 86% 29.64 in 1.5 mi NW 35.7 mph 44.9 mph N/A Snow Light Snow
5:55 PM 28.4 °F 11.8 °F 23.0 °F 80% 29.66 in 1.8 mi WNW 34.5 mph 43.7 mph N/A Snow Light Snow
6:15 PM 28.4 °F 12.0 °F 23.0 °F 80% 29.68 in 1.5 mi NW 33.4 mph 48.3 mph N/A Snow Light Snow
6:35 PM 28.4 °F 12.3 °F 23.0 °F 80% 29.69 in 2.5 mi NW 32.2 mph 46.0 mph N/A Snow Light Snow
6:55 PM 26.6 °F 10.3 °F 21.2 °F 80% 29.71 in 2.5 mi WNW 29.9 mph 41.4 mph N/A Snow Light Snow
7:15 PM 26.6 °F 10.6 °F 21.2 °F 80% 29.72 in 4.0 mi WNW 28.8 mph 38.0 mph N/A   Overcast
7:35 PM 26.6 °F 10.3 °F 21.2 °F 80% 29.74 in 5.0 mi WNW 29.9 mph 35.7 mph N/A   Haze
7:55 PM 24.8 °F 7.6 °F 19.4 °F 80% 29.75 in 4.0 mi WNW 31.1 mph 38.0 mph N/A   Overcast
8:15 PM 24.8 °F 7.9 °F 19.4 °F 80% 29.76 in 3.0 mi WNW 29.9 mph 44.9 mph N/A Snow Light Snow
8:35 PM 23.0 °F 4.6 °F 17.6 °F 80% 29.76 in 2.5 mi WNW 33.4 mph 42.6 mph N/A Snow Light Snow
8:55 PM 21.2 °F 3.0 °F 17.6 °F 86% 29.78 in 3.0 mi WNW 29.9 mph 41.4 mph N/A Snow Light Snow
9:15 PM 21.2 °F 2.7 °F 15.8 °F 80% 29.79 in 3.0 mi WNW 31.1 mph 41.4 mph N/A Snow Light Snow
9:35 PM 21.2 °F 3.0 °F 15.8 °F 80% 29.80 in 2.5 mi WNW 29.9 mph 41.4 mph N/A Snow Light Snow
9:55 PM 19.4 °F -0.0 °F 15.8 °F 86% 29.81 in 4.0 mi WNW 32.2 mph 38.0 mph N/A   Haze
10:15 PM 19.4 °F 0.8 °F 14.0 °F 80% 29.83 in 4.0 mi WNW 28.8 mph 39.1 mph N/A   Clear
10:35 PM 19.4 °F 0.2 °F 14.0 °F 80% 29.84 in 4.0 mi WNW 31.1 mph 41.4 mph N/A Snow Light Snow
10:55 PM 19.4 °F -0.0 °F 12.2 °F 74% 29.85 in 5.0 mi WNW 32.2 mph 39.1 mph N/A   Haze
11:15 PM 19.4 °F 0.2 °F 12.2 °F 74% 29.86 in 4.0 mi WNW 31.1 mph 40.3 mph N/A   Haze
11:35 PM 17.6 °F -1.9 °F 12.2 °F 79% 29.87 in 7.0 mi WNW 29.9 mph 39.1 mph N/A   Clear
11:55 PM 17.6 °F -3.1 °F 12.2 °F 79% 29.88 in 3.0 mi WNW 34.5 mph 40.3 mph N/A Snow Light Snow